Location: Boissi�res
(45.2500°N, 2.3667°E)
Time: 00:24:04
(UTC+00:00)

ISS - Pass Details

Date: 18 September 2021
Orbit: 417 x 423 km, 51.6° (Epoch: 24 October)

Event Time Altitude Azimuth Distance (km) Brightness Sun altitude
Rises 20:20:28 0° 261° (W) 2,359 0.8 -25.1°
Reaches altitude 10° 20:22:38 10° 269° (W) 1,498 -0.2 -25.4°
Enters shadow 20:24:44 30° 296° (WNW) 786 -1.8 -25.7°
